| time (UTC) | temp F | wind direction | speed knots | gust knots | rain 1hr in | rain 24hr in | rain mn in | humidity % | barometer mb |
| 20260508034115 | 57 | 225 | 0.0 | 2.6 | 0.00 | 0.00 | 0.00 | ||
| 20260508033514 | 57 | 270 | 0.9 | 4.3 | 0.00 | 0.00 | 0.00 | ||
| 20260508032915 | 57 | 270 | 0.9 | 4.3 | 0.00 | 0.00 | 0.00 | ||
| 20260508032314 | 57 | 225 | 0.9 | 3.5 | 0.00 | 0.00 | 0.00 | ||
| 20260508031714 | 57 | 270 | 1.7 | 2.6 | 0.00 | 0.00 | 0.00 | ||
| 20260508030519 | 57 | 270 | 0.0 | 2.6 | 0.00 | 0.00 | 0.00 | ||
| 20260508025918 | 57 | 180 | 0.0 | 2.6 | 0.00 | 0.00 | 0.00 | ||
| 20260508025318 | 57 | 270 | 0.0 | 2.6 | 0.00 | 0.00 | 0.00 | ||
| 20260508024714 | 57 | 225 | 0.0 | 4.3 | 0.00 | 0.00 | 0.00 | ||
| 20260508024114 | 57 | 225 | 0.0 | 2.6 | 0.00 | 0.00 | 0.00 | ||
| 20260508023513 | 57 | 225 | 0.0 | 4.3 | 0.00 | 0.00 | 0.00 | ||
| 20260508022913 | 57 | 270 | 0.0 | 4.3 | 0.00 | 0.00 | 0.00 | ||
| 20260508022314 | 57 | 270 | 2.6 | 4.3 | 0.00 | 0.00 | 0.00 | ||
| 20260508021713 | 57 | 270 | 0.9 | 4.3 | 0.00 | 0.00 | 0.00 | ||
| 20260508020614 | 57 | 180 | 0.9 | 7.8 | 0.00 | 0.00 | 0.00 | ||
| 20260508020014 | 57 | 270 | 0.9 | 7.8 | 0.00 | 0.00 | 0.00 | ||
| 20260508015414 | 57 | 270 | 1.7 | 4.3 | 0.00 | 0.00 | 0.00 | ||
| 20260508014814 | 57 | 270 | 1.7 | 4.3 | 0.00 | 0.00 | 0.00 | ||
| 20260508013513 | 57 | 225 | 1.7 | 5.2 | 0.00 | 0.00 | 0.00 | ||
| 20260508012914 | 57 | 270 | 1.7 | 4.3 | 0.00 | 0.00 | 0.00 | ||
| 20260508012313 | 57 | 225 | 1.7 | 4.3 | 0.00 | 0.00 | 0.00 | ||
| 20260508011714 | 57 | 225 | 1.7 | 4.3 | 0.00 | 0.00 | 0.00 | ||
| 20260508010516 | 57 | 270 | 0.9 | 4.3 | 0.00 | 0.00 | 0.00 | ||
| 20260508005916 | 57 | 180 | 0.0 | 2.6 | 0.00 | 0.00 | 0.00 | ||
| 20260508005315 | 57 | 270 | 1.7 | 2.6 | 0.00 | 0.00 | 0.00 | ||
| 20260508004715 | 57 | 315 | 0.0 | 4.3 | 0.00 | 0.00 | 0.00 | ||
| 20260508004114 | 57 | 270 | 1.7 | 3.5 | 0.00 | 0.00 | 0.00 | ||
| 20260508003514 | 57 | 270 | 0.9 | 5.2 | 0.00 | 0.00 | 0.00 | ||
| 20260508002913 | 57 | 315 | 1.7 | 5.2 | 0.00 | 0.00 | 0.00 | ||
| 20260508002314 | 57 | 225 | 0.0 | 5.2 | 0.00 | 0.00 | 0.00 | ||
| 20260508001713 | 57 | 270 | 0.9 | 5.2 | 0.00 | 0.00 | 0.00 | ||
| 20260508000413 | 57 | 270 | 0.9 | 2.6 | 0.00 | 0.00 | 0.00 | ||
| 20260507235813 | 57 | 225 | 0.9 | 2.6 | 0.00 | 0.00 | 0.00 | ||
| 20260507235213 | 56 | 270 | 0.9 | 2.6 | 0.00 | 0.00 | 0.00 | ||
| 20260507234612 | 57 | 270 | 0.9 | 4.3 | 0.00 | 0.00 | 0.00 | ||
| 20260507234013 | 57 | 225 | 1.7 | 4.3 | 0.00 | 0.00 | 0.00 | ||
| 20260507233413 | 57 | 270 | 1.7 | 4.3 | 0.00 | 0.00 | 0.00 | ||
| 20260507232813 | 57 | 270 | 0.9 | 4.3 | 0.00 | 0.00 | 0.00 | ||
| 20260507232213 | 57 | 225 | 1.7 | 4.3 | 0.00 | 0.00 | 0.00 | ||
| 20260507231614 | 57 | 180 | 0.0 | 4.3 | 0.00 | 0.00 | 0.00 | ||
| 20260507230515 | 57 | 270 | 0.9 | 5.2 | 0.00 | 0.00 | 0.00 | ||
| 20260507225914 | 57 | 270 | 0.9 | 6.1 | 0.00 | 0.00 | 0.00 | ||
| 20260507225314 | 57 | 225 | 0.9 | 4.3 | 0.00 | 0.00 | 0.00 | ||
| 20260507224715 | 57 | 180 | 0.0 | 3.5 | 0.00 | 0.00 | 0.00 | ||
| 20260507224114 | 57 | 270 | 0.9 | 5.2 | 0.00 | 0.00 | 0.00 | ||
| 20260507223513 | 57 | 135 | 0.0 | 5.2 | 0.00 | 0.00 | 0.00 | ||
| 20260507222913 | 58 | 270 | 0.0 | 6.1 | 0.00 | 0.00 | 0.00 | ||
| 20260507222314 | 58 | 270 | 1.7 | 7.0 | 0.00 | 0.00 | 0.00 | ||
| 20260507221713 | 58 | 135 | 0.9 | 8.7 | 0.00 | 0.00 | 0.00 | ||
| 20260507220517 | 58 | 225 | 2.6 | 6.1 | 0.00 | 0.00 | 0.00 | ||
| 20260507215916 | 58 | 225 | 2.6 | 7.8 | 0.00 | 0.00 | 0.00 | ||
| 20260507215315 | 58 | 270 | 1.7 | 7.8 | 0.00 | 0.00 | 0.00 | ||
| 20260507214714 | 58 | 225 | 0.9 | 6.1 | 0.00 | 0.00 | 0.00 | ||
| 20260507214115 | 58 | 225 | 2.6 | 6.1 | 0.00 | 0.00 | 0.00 | ||
| 20260507213514 | 58 | 225 | 0.9 | 6.1 | 0.00 | 0.00 | 0.00 | ||
| 20260507212915 | 58 | 225 | 0.9 | 7.0 | 0.00 | 0.00 | 0.00 | ||
| 20260507212314 | 58 | 225 | 0.9 | 4.3 | 0.00 | 0.00 | 0.00 | ||
| 20260507211714 | 58 | 270 | 0.9 | 5.2 | 0.00 | 0.00 | 0.00 | ||
| 20260507210516 | 58 | 225 | 1.7 | 7.8 | 0.00 | 0.00 | 0.00 | ||
| 20260507205917 | 58 | 270 | 1.7 | 7.0 | 0.00 | 0.00 | 0.00 | ||
| 20260507205316 | 58 | 225 | 2.6 | 7.0 | 0.00 | 0.00 | 0.00 | ||
| 20260507204716 | 59 | 270 | 5.2 | 7.0 | 0.00 | 0.00 | 0.00 | ||
| 20260507204116 | 59 | 225 | 2.6 | 7.8 | 0.00 | 0.00 | 0.00 | ||
| 20260507203515 | 59 | 225 | 2.6 | 7.8 | 0.00 | 0.00 | 0.00 | ||
| 20260507202915 | 59 | 180 | 1.7 | 7.8 | 0.00 | 0.00 | 0.00 | ||
| 20260507202314 | 60 | 270 | 2.6 | 8.7 | 0.00 | 0.00 | 0.00 | ||
| 20260507201715 | 60 | 225 | 0.9 | 8.7 | 0.00 | 0.00 | 0.00 | ||
| 20260507200418 | 60 | 225 | 2.6 | 7.8 | 0.00 | 0.00 | 0.00 | ||
| 20260507195817 | 60 | 225 | 1.7 | 7.8 | 0.00 | 0.00 | 0.00 | ||
| 20260507195217 | 60 | 360 | 0.9 | 6.1 | 0.00 | 0.00 | 0.00 | ||
| 20260507194616 | 60 | 270 | 3.5 | 6.1 | 0.00 | 0.00 | 0.00 | ||
| 20260507194016 | 60 | 225 | 0.9 | 6.1 | 0.00 | 0.00 | 0.00 | ||
| 20260507193416 | 60 | 225 | 1.7 | 6.1 | 0.00 | 0.00 | 0.00 | ||
| 20260507192815 | 60 | 270 | 0.9 | 6.1 | 0.00 | 0.00 | 0.00 | ||
| 20260507192215 | 60 | 45 | 0.0 | 11.3 | 0.00 | 0.00 | 0.00 | ||
| 20260507191615 | 61 | 180 | 1.7 | 8.7 | 0.00 | 0.00 | 0.00 | ||
| 20260507190416 | 61 | 225 | 2.6 | 8.7 | 0.00 | 0.00 | 0.00 | ||
| 20260507185814 | 62 | 225 | 0.0 | 7.8 | 0.00 | 0.00 | 0.00 | ||
| 20260507185215 | 62 | 225 | 6.1 | 7.8 | 0.00 | 0.00 | 0.00 | ||
| 20260507184615 | 62 | 225 | 2.6 | 7.8 | 0.00 | 0.00 | 0.00 | ||
| 20260507184015 | 62 | 135 | 0.9 | 6.1 | 0.00 | 0.00 | 0.00 | ||
| 20260507183414 | 62 | 270 | 4.3 | 7.8 | 0.00 | 0.00 | 0.00 | ||
| 20260507182814 | 62 | 180 | 1.7 | 7.8 | 0.00 | 0.00 | 0.00 | ||
| 20260507182213 | 62 | 270 | 0.9 | 9.6 | 0.00 | 0.00 | 0.00 | ||
| 20260507181612 | 63 | 225 | 3.5 | 9.6 | 0.00 | 0.00 | 0.00 | ||
| 20260507180415 | 63 | 225 | 6.1 | 7.8 | 0.00 | 0.00 | 0.00 | ||
| 20260507175815 | 63 | 270 | 5.2 | 7.8 | 0.00 | 0.00 | 0.00 | ||
| 20260507175215 | 62 | 270 | 2.6 | 7.8 | 0.00 | 0.00 | 0.00 | ||
| 20260507174616 | 62 | 180 | 1.7 | 7.8 | 0.00 | 0.00 | 0.00 | ||
| 20260507174015 | 62 | 270 | 6.1 | 7.8 | 0.00 | 0.00 | 0.00 | ||
| 20260507173415 | 62 | 270 | 1.7 | 6.1 | 0.00 | 0.00 | 0.00 | ||
| 20260507172814 | 62 | 180 | 0.9 | 8.7 | 0.00 | 0.00 | 0.00 | ||
| 20260507172214 | 62 | 225 | 4.3 | 8.7 | 0.00 | 0.00 | 0.00 | ||
| 20260507171614 | 62 | 270 | 1.7 | 7.8 | 0.00 | 0.00 | 0.00 | ||
| 20260507170517 | 61 | 180 | 1.7 | 6.1 | 0.00 | 0.00 | 0.00 | ||
| 20260507165920 | 61 | 270 | 3.5 | 6.1 | 0.00 | 0.00 | 0.00 | ||
| 20260507165317 | 61 | 225 | 0.9 | 6.1 | 0.00 | 0.00 | 0.00 | ||
| 20260507164717 | 61 | 315 | 0.9 | 6.1 | 0.00 | 0.00 | 0.00 | ||
| 20260507164116 | 61 | 225 | 1.7 | 6.1 | 0.00 | 0.00 | 0.00 | ||
| 20260507163517 | 61 | 270 | 0.9 | 5.2 | 0.00 | 0.00 | 0.00 | ||
| 20260507162916 | 61 | 270 | 0.9 | 2.6 | 0.00 | 0.00 | 0.00 | ||
| 20260507162314 | 61 | 135 | 0.0 | 4.3 | 0.00 | 0.00 | 0.00 | ||
| 20260507161713 | 61 | 180 | 0.0 | 4.3 | 0.00 | 0.00 | 0.00 | ||
| 20260507160415 | 61 | 270 | 1.7 | 5.2 | 0.00 | 0.00 | 0.00 | ||
| 20260507155815 | 61 | 270 | 0.0 | 2.6 | 0.00 | 0.00 | 0.00 | ||
| 20260507155214 | 61 | 225 | 0.9 | 4.3 | 0.00 | 0.00 | 0.00 | ||
| 20260507154615 | 61 | 180 | 0.9 | 5.2 | 0.00 | 0.00 | 0.00 | ||
| 20260507154014 | 61 | 180 | 0.9 | 5.2 | 0.00 | 0.00 | 0.00 | ||
| 20260507153414 | 61 | 225 | 0.9 | 5.2 | 0.00 | 0.00 | 0.00 | ||
| 20260507152815 | 61 | 180 | 1.7 | 5.2 | 0.00 | 0.00 | 0.00 | ||
| 20260507152214 | 60 | 270 | 1.7 | 5.2 | 0.00 | 0.00 | 0.00 | ||
| 20260507151614 | 60 | 270 | 2.6 | 7.0 | 0.00 | 0.00 | 0.00 | ||
| 20260507150515 | 60 | 225 | 1.7 | 6.1 | 0.00 | 0.00 | 0.00 | ||
| 20260507145914 | 61 | 225 | 1.7 | 6.1 | 0.00 | 0.00 | 0.00 | ||
| 20260507145315 | 60 | 225 | 0.0 | 5.2 | 0.00 | 0.00 | 0.00 | ||
| 20260507144714 | 60 | 270 | 1.7 | 5.2 | 0.00 | 0.00 | 0.00 | ||
| 20260507144114 | 60 | 225 | 4.3 | 7.8 | 0.00 | 0.00 | 0.00 | ||
| 20260507143513 | 60 | 180 | 0.9 | 7.8 | 0.00 | 0.00 | 0.00 | ||
| 20260507142913 | 60 | 225 | 0.9 | 5.2 | 0.00 | 0.00 | 0.00 | ||
| 20260507142314 | 60 | 270 | 1.7 | 4.3 | 0.00 | 0.00 | 0.00 | ||
| 20260507141713 | 60 | 225 | 1.7 | 4.3 | 0.00 | 0.00 | 0.00 | ||
| 20260507140416 | 60 | 225 | 0.9 | 5.2 | 0.00 | 0.00 | 0.00 | ||
| 20260507135817 | 60 | 270 | 1.7 | 5.2 | 0.00 | 0.00 | 0.00 | ||
| 20260507135216 | 60 | 225 | 0.9 | 5.2 | 0.00 | 0.00 | 0.00 | ||
| 20260507134617 | 60 | 225 | 0.9 | 2.6 | 0.00 | 0.00 | 0.00 | ||
| 20260507134017 | 60 | 180 | 1.7 | 2.6 | 0.00 | 0.00 | 0.00 | ||
| 20260507133416 | 60 | 180 | 0.0 | 2.6 | 0.00 | 0.00 | 0.00 | ||
| 20260507132815 | 59 | 180 | 0.0 | 4.3 | 0.00 | 0.00 | 0.00 | ||
| 20260507132215 | 59 | 225 | 1.7 | 4.3 | 0.00 | 0.00 | 0.00 | ||
| 20260507131615 | 59 | 225 | 0.9 | 5.2 | 0.00 | 0.00 | 0.00 | ||
| 20260507130419 | 59 | 180 | 0.9 | 4.3 | 0.00 | 0.00 | 0.00 | ||
| 20260507125818 | 59 | 225 | 0.9 | 5.2 | 0.00 | 0.00 | 0.00 | ||
| 20260507125219 | 59 | 180 | 0.9 | 5.2 | 0.00 | 0.00 | 0.00 | ||
| 20260507124617 | 60 | 270 | 1.7 | 4.3 | 0.00 | 0.00 | 0.00 | ||
| 20260507124016 | 60 | 315 | 0.9 | 8.7 | 0.00 | 0.00 | 0.00 | ||
| 20260507123413 | 60 | 180 | 0.9 | 8.7 | 0.00 | 0.00 | 0.00 | ||
| 20260507122813 | 60 | 45 | 1.7 | 7.0 | 0.00 | 0.00 | 0.00 | ||
| 20260507122213 | 60 | 225 | 0.9 | 7.0 | 0.00 | 0.00 | 0.00 | ||
| 20260507121613 | 60 | 225 | 4.3 | 7.0 | 0.00 | 0.00 | 0.00 | ||
| 20260507120514 | 60 | 315 | 0.0 | 7.0 | 0.00 | 0.00 | 0.00 | ||
| 20260507115914 | 60 | 180 | 4.3 | 6.1 | 0.00 | 0.00 | 0.00 | ||
| 20260507115314 | 60 | 180 | 0.0 | 4.3 | 0.00 | 0.00 | 0.00 | ||
| 20260507114715 | 60 | 225 | 1.7 | 4.3 | 0.00 | 0.00 | 0.00 | ||
| 20260507114113 | 60 | 225 | 0.9 | 4.3 | 0.00 | 0.00 | 0.00 | ||
| 20260507113514 | 60 | 180 | 0.9 | 4.3 | 0.00 | 0.00 | 0.00 | ||
| 20260507112913 | 60 | 225 | 1.7 | 4.3 | 0.00 | 0.00 | 0.00 | ||
| 20260507112313 | 60 | 180 | 1.7 | 5.2 | 0.00 | 0.00 | 0.00 | ||
| 20260507111713 | 61 | 180 | 2.6 | 6.1 | 0.00 | 0.00 | 0.00 | ||
| 20260507110514 | 61 | 225 | 2.6 | 6.1 | 0.00 | 0.00 | 0.00 | ||
| 20260507105914 | 61 | 225 | 1.7 | 6.1 | 0.00 | 0.00 | 0.00 | ||
| 20260507105314 | 60 | 225 | 0.0 | 6.1 | 0.00 | 0.00 | 0.00 | ||
| 20260507104713 | 60 | 180 | 0.9 | 7.8 | 0.00 | 0.00 | 0.00 | ||
| 20260507104113 | 60 | 180 | 1.7 | 7.8 | 0.00 | 0.00 | 0.00 | ||
| 20260507103513 | 60 | 180 | 0.9 | 7.8 | 0.00 | 0.00 | 0.00 | ||
| 20260507102214 | 60 | 225 | 1.7 | 8.7 | 0.00 | 0.00 | 0.00 | ||
| 20260507101615 | 60 | 270 | 1.7 | 6.1 | 0.00 | 0.00 | 0.00 | ||
| 20260507100517 | 60 | 225 | 2.6 | 5.2 | 0.00 | 0.00 | 0.00 | ||
| 20260507095916 | 60 | 225 | 2.6 | 6.1 | 0.00 | 0.00 | 0.00 | ||
| 20260507095316 | 60 | 225 | 0.9 | 6.1 | 0.00 | 0.00 | 0.00 | ||
| 20260507094716 | 60 | 270 | 2.6 | 6.1 | 0.00 | 0.00 | 0.00 | ||
| 20260507094115 | 60 | 225 | 2.6 | 6.1 | 0.00 | 0.00 | 0.00 | ||
| 20260507093520 | 61 | 270 | 4.3 | 6.1 | 0.00 | 0.00 | 0.00 | ||
| 20260507092914 | 61 | 270 | 1.7 | 8.7 | 0.00 | 0.00 | 0.00 | ||
| 20260507092315 | 62 | 180 | 1.7 | 8.7 | 0.00 | 0.00 | 0.00 | ||
| 20260507091714 | 62 | 270 | 2.6 | 6.1 | 0.00 | 0.00 | 0.00 | ||
| 20260507090515 | 62 | 225 | 2.6 | 5.2 | 0.00 | 0.00 | 0.00 | ||
| 20260507085914 | 62 | 225 | 1.7 | 2.6 | 0.00 | 0.00 | 0.00 | ||
| 20260507085315 | 62 | 180 | 0.0 | 2.6 | 0.00 | 0.00 | 0.00 | ||
| 20260507084714 | 62 | 225 | 0.9 | 2.6 | 0.00 | 0.00 | 0.00 | ||
| 20260507084114 | 62 | 270 | 1.7 | 1.7 | 0.00 | 0.00 | 0.00 | ||
| 20260507082813 | 62 | 270 | 0.0 | 0.9 | 0.00 | 0.00 | 0.00 | ||
| 20260507082213 | 62 | 360 | 0.0 | 0.9 | 0.00 | 0.00 | 0.00 | ||
| 20260507081614 | 62 | 90 | 0.0 | 0.9 | 0.00 | 0.00 | 0.00 | ||
| 20260507080515 | 62 | 90 | 0.0 | 1.7 | 0.00 | 0.00 | 0.00 | ||
| 20260507075915 | 62 | 90 | 0.0 | 1.7 | 0.00 | 0.00 | 0.00 | ||
| 20260507075315 | 62 | 90 | 0.9 | 1.7 | 0.00 | 0.00 | 0.00 | ||
| 20260507074715 | 62 | 90 | 1.7 | 1.7 | 0.00 | 0.00 | 0.00 | ||
| 20260507074114 | 62 | 90 | 0.0 | 2.6 | 0.00 | 0.00 | 0.00 | ||
| 20260507073515 | 62 | 90 | 0.0 | 2.6 | 0.00 | 0.00 | 0.00 | ||
| 20260507072914 | 62 | 90 | 0.0 | 0.9 | 0.00 | 0.00 | 0.00 | ||
| 20260507072313 | 62 | 90 | 0.0 | 0.9 | 0.00 | 0.00 | 0.00 | ||
| 20260507070514 | 62 | 90 | 0.0 | 1.7 | 0.00 | 0.00 | 0.00 | ||
| 20260507065914 | 62 | 135 | 0.0 | 2.6 | 0.00 | 0.00 | 0.00 | ||
| 20260507065315 | 62 | 90 | 0.9 | 4.3 | 0.00 | 0.00 | 0.00 | ||
| 20260507064714 | 62 | 90 | 0.9 | 4.3 | 0.00 | 0.00 | 0.00 | ||
| 20260507064114 | 62 | 90 | 1.7 | 4.3 | 0.00 | 0.00 | 0.00 | ||
| 20260507063514 | 62 | 90 | 0.9 | 3.5 | 0.00 | 0.00 | 0.00 | ||
| 20260507062913 | 62 | 90 | 1.7 | 4.3 | 0.00 | 0.00 | 0.00 | ||
| 20260507061613 | 62 | 90 | 0.9 | 4.3 | 0.00 | 0.00 | 0.00 | ||
| 20260507060416 | 63 | 45 | 1.7 | 2.6 | 0.00 | 0.00 | 0.00 | ||
| 20260507055815 | 63 | 90 | 0.0 | 2.6 | 0.00 | 0.00 | 0.00 | ||
| 20260507055214 | 62 | 135 | 0.0 | 2.6 | 0.00 | 0.00 | 0.00 | ||
| 20260507054614 | 62 | 90 | 0.9 | 2.6 | 0.00 | 0.00 | 0.00 | ||
| 20260507054014 | 63 | 90 | 0.0 | 1.7 | 0.00 | 0.00 | 0.00 | ||
| 20260507053415 | 62 | 90 | 0.0 | 0.9 | 0.00 | 0.00 | 0.00 | ||
| 20260507052814 | 62 | 90 | 0.0 | 1.7 | 0.00 | 0.00 | 0.00 | ||
| 20260507052215 | 62 | 90 | 0.9 | 1.7 | 0.00 | 0.00 | 0.00 | ||
| 20260507051614 | 62 | 90 | 0.0 | 1.7 | 0.00 | 0.00 | 0.00 | ||
| 20260507050416 | 62 | 90 | 0.9 | 1.7 | 0.00 | 0.00 | 0.00 | ||
| 20260507045816 | 62 | 0 | 0.0 | 2.6 | 0.00 | 0.00 | 0.00 | ||
| 20260507045217 | 62 | 90 | 0.0 | 1.7 | 0.00 | 0.00 | 0.00 | ||
| 20260507044616 | 62 | 135 | 0.0 | 1.7 | 0.00 | 0.00 | 0.00 | ||
| 20260507044017 | 62 | 45 | 0.0 | 0.9 | 0.00 | 0.00 | 0.00 | ||
| 20260507043416 | 62 | 90 | 0.0 | 1.7 | 0.00 | 0.00 | 0.00 | ||
| 20260507042816 | 62 | 135 | 0.0 | 2.6 | 0.00 | 0.00 | 0.00 | ||
| 20260507042215 | 62 | 135 | 0.0 | 4.3 | 0.00 | 0.00 | 0.00 | ||
| 20260507041615 | 62 | 90 | 1.7 | 3.5 | 0.00 | 0.00 | 0.00 | ||
| 20260507040614 | 62 | 90 | 0.9 | 5.2 | 0.00 | 0.00 | 0.00 | ||
| 20260507040015 | 62 | 45 | 0.9 | 7.0 | 0.00 | 0.00 | 0.00 | ||
| 20260507035415 | 62 | 135 | 1.7 | 7.0 | 0.00 | 0.00 | 0.00 | ||
| 20260507034815 | 62 | 90 | 2.6 | 8.7 | 0.00 | 0.00 | 0.00 |